Location: Unspecified
(17.6330°N, 0.0000°E)
Time: 07:07:59
(UTC+00:00)

OTV 5 (USA 277) - Visible Passes

Search period start: 24 May 2019 00:00
Search period end: 03 June 2019 00:00
Orbit: 310 x 325 km, 54.5° (Epoch: 08 May)

Date Brightness Start Highest point End Pass type
(mag) Time Alt. Az. Time Alt. Az. Time Alt. Az.
29 May ? 04:31:58 13° SSW 04:34:10 40° ESE 04:36:46 10° NE visible
30 May ? 04:46:46 13° WSW 04:48:51 34° NW 04:51:22 10° NNE visible
31 May ? 03:30:34 15° E 03:30:34 15° E 03:31:27 10° ENE visible
01 Jun ? 03:45:11 31° NNE 03:45:11 31° NNE 03:46:46 10° NNE visible
02 Jun ? 03:59:42 15° NNW 03:59:42 15° NNW 04:00:40 10° N visible
